User: anonymous   Login
Location: Lac de la Montange Noire
(46.1952°N, 74.2701°W)
Time: 16:31:03
(UTC-05:00)
Language:

Iridium 42 - Orbit

View from above orbital plane
View from above orbital plane
View from above satellite
View from above satellite

Ground track
Ground track

The orbit data is extracted from the following two-line orbital elements,

1 25077U 97077A   14328.39221199  .00000238  00000-0  77731-4 0   482
2 25077 086.3984 053.1471 0002321 107.9254 252.2195 14.34278637888047
Epoch (UTC): 24 November 2014 09:24:47
Eccentricity: 0.0002321
inclination: 86.3984°
perigee height: 776 km
apogee height: 779 km
right ascension of ascending node: 53.1471°
argument of perigee: 107.9254°
revolutions per day: 14.34278637
mean anomaly at epoch: 252.2195°
orbit number at epoch: 88804

The dashed part of the orbit path shows where the satellite is in the earth's shadow,  

DLR